Regional Weather Roundup
Issued by NWS Charleston, SC

Home | Current Version | Previous Version | Text Only | Print | Product List | Glossary On
Versions: 1 2 3 4 5 6 7 8 9 10 11 12 13 14 15 16 17 18 19 20 21 22 23 24 25 26 27 28 29 30 31 32 33 34 35 36 37 38 39 40 41 42 43 44 45 46 47 48 49 50
000
ASUS42 KCHS 042027
RWRCHS

REGIONAL WEATHER ROUNDUP
NATIONAL WEATHER SERVICE CHARLESTON SC
400 PM EDT FRI SEP 04 2015

NOTE: "FAIR" INDICATES FEW OR NO CLOUDS BELOW 12,000 FEET WITH NO
SIGNIFICANT WEATHER AND/OR OBSTRUCTIONS TO VISIBILITY.

NOT ALL STATIONS ARE QUALITY CONTROLLED BY THE NATIONAL
WEATHER SERVICE. USE DATA WITH CAUTION...ESPECIALLY
DEWPOINT OBSERVATIONS.

SCZ027-030-031-034>040-042>050-042100-
...SOUTHEAST SOUTH CAROLINA...

CITY           SKY/WX    TMP DP  RH WIND       PRES   REMARKS
N CHARLESTON   PTSUNNY   77  69  76 S10       29.93F THUNDER
WATERFRONT PRK   N/A     79  74  85 NW6G20    29.93S
MOUNT PLEASANT FAIR      81  79  94 E3        29.94F FOG
JOHNS ISLAND   TSTM      73  70  88 W8        29.95S
PINOPOLIS        N/A     97  70  41 CALM      29.87F HX 103
MONCKS CORNER  FAIR      86  72  62 S7        29.93S HX  92
SUMMERVILLE    FAIR      90  72  55 SE9       29.94R THUNDER HX  96
BEAUFORT MCAS  TSTM      76  68  76 NW12      29.94R
BEAUFORT ARPT  FAIR      86  77  74 SE6       29.91F HX  97
HILTON HEAD IS PTSUNNY   86  81  84 SW5       29.94F HX 102
WALTERBORO     PTCLDY    84  70  61 NE8       29.93S
ALLENDALE      FAIR      86  70  58 VRB6      29.92F HX  90

...SOUTHERN MIDLANDS AND PEE DEE...

CITY           SKY/WX    TMP DP  RH WIND       PRES   REMARKS
GEORGETOWN     NOT AVBL
KINGSTREE      NOT AVBL
ORANGEBURG     LGT RAIN  80  73  79 CALM      29.94F
BARNWELL       MOCLDY    79  73  83 W3        29.95R THUNDER
AIKEN          FAIR      91  61  35 N8        29.98S HX  91
MANNING        FAIR      90  63  40 N3        29.92F HX  90
COLUMBIA       MOSUNNY   94  63  35 CALM      29.93F HX  95
SUMTER         SUNNY     94  64  36 N6        29.91F HX  96
FLORENCE       MOSUNNY   94  67  41 NE6       29.93F HX  97
MYRTLE BEACH   MOSUNNY   88  73  62 SE8       29.96F HX  96
N MYRTLE BEACH SUNNY     86  75  69 SE9       29.95F HX  95

$$

GAZ063-065-086>088-099>101-113>116-118-119-134>141-150-042100-
...SOUTHEAST GEORGIA...

CITY           SKY/WX    TMP DP  RH WIND       PRES   REMARKS
SAVANNAH ARPT  PTSUNNY   77  71  82 W6        29.95F
HUNTER AAF     CLOUDY    79  79 100 W3        29.92S
FORT STEWART   PTSUNNY   84  73  70 E10       29.93R HX  91
STATESBORO     PTSUNNY   87  77  70 W3        29.93S HX  99
SYLVANIA       NOT AVBL
CLAXTON        NOT AVBL

...CSRA...CENTRAL AND FAR SOUTHEAST GEORGIA...

CITY           SKY/WX    TMP DP  RH WIND       PRES   REMARKS
THOMSON        MOSUNNY   95  73  49 NE6       29.99F HX 103
AUGUSTA-BUSH   MOSUNNY   95  68  41 N7        29.91F HX  99
AUGUSTA-DANIEL MOSUNNY   96  68  39 N10G17    29.94F HX 101
SWAINSBORO     MOCLDY    88  72  58 E5        29.95S HX  94
VIDALIA        PTSUNNY   81  68  65 NE8       29.94S
EASTMAN        FAIR      94  70  46 NE3       29.95F HX 100
HAZLEHURST     FAIR      93  73  52 SW3       29.91F HX 101
ALMA           MOSUNNY   93  70  46 W5        29.91F HX  99
WAYCROSS       PTSUNNY   95  77  56 W8        29.91F HX 110
JESUP          MOCLDY    91  77  62 E9        29.92S HX 105
BAXLEY         FAIR      93  72  49 N5        29.91F HX 100
BRUNSWICK      PTSUNNY   88  77  70 NE8       29.94S HX 100
SAINT SIMONS   PTSUNNY   86  76  71 E8        29.93F HX  96

$$

SCZ027-028-034-036>038-045-046-048>050-GAZ119-141-042100-
...LAKE AND SUPPLEMENTAL COASTAL OBSERVATIONS...

STATION/POSITION TIME  TEMP    WIND        PRES    WAVE   SWELL
                       AIR SEA DIR/SP/G            HT/PER HT/PER/DIR
                 (UTC) (F)     (DEG/KT/KT) (MB)    (FT/S) (FT/S/D)
UPR LAKE MARION  NOT AVBL
WINYAH BAY       1900   82     110/  7     1014.0S
LAKE MURRAY      1900   90     230/  4/  5 1013.5F
ACE BASIN NERRS  NOT AVBL
FORT PULASKI     2000   82 84  270/  6/  7 1014.0F
SAPELO ISLAND    2000   79     310/  8     1014.0S

$$

ANZ835-935-AMZ111-154-330-350-352-354-370-450-454-472-042100-
...C-MAN AND BUOY OBSERVATIONS...

STATION/POSITION TIME  TEMP    WIND        PRES    WAVE   SWELL
                       AIR SEA DIR/SP/G            HT/PER HT/PER/DIR
                 (UTC) (F)     (DEG/KT/KT) (MB)    (FT/S) (FT/S/D)
BUOY 41004       1950   83 86   70/  6/  8 1013.5F   1/ 8   2/ 8
BUOY 41008       1950   84 86  120/  4/  6 1013.7F   1
FOLLY BEACH CMAN 2000   83     100/  4/  4 1014.0F
CAPERS NEARSHORE 1908   83     120/  8/ 10 1014.3F
FRIPP NEARSHORE  1900   86     130/  8/  8 1014.0F


STATION/POSITION TIME  TEMP    WIND        PRES    WAVE   SWELL
                       AIR SEA DIR/SP/G            HT/PER HT/PER/DIR
                 (UTC) (F)     (DEG/KT/KT) (MB)    (FT/S) (FT/S/D)
5E ST. MARYS GA  1921      87                N/A     1/13
FRYING PAN BUOY  1950   83 83   50/  6/  8 1014.5F   1/ 8   2/130/ 8
BUOY 41025       1950   84 85   10/  4/  8 1013.9F   1/11   2/ 60/11
CAPE LOOKOUT NC  2000   84     130/  5/  6 1013.5F
BUOY 41002       1950   83 85  350/  8/ 10 1013.0F   2/11   2/ 30/11
BUOY 41010       1920   83 86   20/  6/  8 1013.6F
ST AUGUSTINE FL  2000   84 86   80/  5/  6 1014.5F


$$



USA.gov is the U.S. government's official web portal to all federal, state and local government web resources and services.